• en Suisse
  • Liste des pays
  • À 7 jours
  • Température de l'eau
  • Carte satellitaire
  • Carte météo
  • Widgets météo
  • user-avatar
    Se connecter

    Météo par heure à Matlock

    Ce jour, 23 Septembre, Dimanche

    Heure Température Précipitation Vent Pression Humidité
    00:00 +8°C° 0 mm 2 m/s 745 mmHg 82%
    01:00 +8°C° 0 mm 2 m/s 745 mmHg 80%
    02:00 +8°C° 0 mm 2 m/s 745 mmHg 79%
    03:00 +7°C° 0 mm 2 m/s 745 mmHg 77%
    04:00 +7°C° 0.1 mm 2 m/s 745 mmHg 77%
    05:00 +7°C° 0.1 mm 2 m/s 745 mmHg 77%
    06:00 +7°C° 0.1 mm 2 m/s 745 mmHg 78%
    07:00 +8°C° 0.2 mm 3 m/s 745 mmHg 75%
    08:00 +8°C° 0.2 mm 3 m/s 746 mmHg 73%
    09:00 +8°C° 0.2 mm 3 m/s 746 mmHg 71%
    10:00 +8°C° 0.1 mm 4 m/s 747 mmHg 66%
    11:00 +9°C° 0.1 mm 5 m/s 747 mmHg 61%
    12:00 +12°C° 0.1 mm 5 m/s 748 mmHg 55%
    13:00 +11°C° 0 mm 6 m/s 748 mmHg 55%
    14:00 +11°C° 0 mm 6 m/s 749 mmHg 54%
    15:00 +11°C° 0 mm 6 m/s 749 mmHg 53%
    16:00 +10°C° 0 mm 5 m/s 750 mmHg 58%
    17:00 +10°C° 0 mm 4 m/s 751 mmHg 63%
    18:00 +8°C° 0 mm 4 m/s 752 mmHg 67%
    19:00 +9°C° 0 mm 3 m/s 753 mmHg 70%
    20:00 +8°C° 0 mm 3 m/s 754 mmHg 73%
    21:00 +8°C° 0 mm 3 m/s 755 mmHg 76%
    22:00 +7°C° 0 mm 3 m/s 756 mmHg 77%
    23:00 +7°C° 0 mm 3 m/s 756 mmHg 78%

    Demain, 24 Septembre, Lundi

    Heure Température Précipitation Vent Pression Humidité
    00:00 +7°C° 0 mm 3 m/s 757 mmHg 79%
    01:00 +5°C° 0 mm 3 m/s 757 mmHg 80%
    02:00 +5°C° 0 mm 3 m/s 758 mmHg 80%
    03:00 +6°C° 0 mm 2 m/s 758 mmHg 80%
    04:00 +5°C° 0 mm 2 m/s 759 mmHg 80%
    05:00 +5°C° 0 mm 2 m/s 759 mmHg 79%
    06:00 +5°C° 0 mm 2 m/s 760 mmHg 79%
    07:00 +6°C° 0 mm 2 m/s 760 mmHg 73%
    08:00 +8°C° 0 mm 2 m/s 760 mmHg 67%
    09:00 +9°C° 0 mm 3 m/s 761 mmHg 61%
    10:00 +11°C° 0 mm 3 m/s 761 mmHg 59%
    11:00 +12°C° 0 mm 3 m/s 761 mmHg 57%
    12:00 +13°C° 0 mm 3 m/s 762 mmHg 54%
    13:00 +13°C° 0 mm 3 m/s 761 mmHg 54%
    14:00 +13°C° 0 mm 3 m/s 761 mmHg 55%
    15:00 +13°C° 0 mm 3 m/s 761 mmHg 55%
    16:00 +12°C° 0 mm 3 m/s 761 mmHg 60%
    17:00 +11°C° 0 mm 3 m/s 761 mmHg 65%
    18:00 +9°C° 0 mm 2 m/s 761 mmHg 69%
    19:00 +9°C° 0 mm 2 m/s 761 mmHg 72%
    20:00 +8°C° 0 mm 2 m/s 761 mmHg 74%
    21:00 +9°C° 0 mm 1 m/s 762 mmHg 77%
    22:00 +8°C° 0 mm 1 m/s 762 mmHg 78%
    23:00 +8°C° 0 mm 1 m/s 762 mmHg 80%

    Après-demain, 25 Septembre, Mardi

    Heure Température Précipitation Vent Pression Humidité
    00:00 +8°C° 0 mm 1 m/s 761 mmHg 81%
    01:00 +7°C° 0 mm 1 m/s 761 mmHg 82%
    02:00 +7°C° 0 mm 1 m/s 761 mmHg 82%
    03:00 +7°C° 0 mm 1 m/s 761 mmHg 82%
    04:00 +7°C° 0 mm 1 m/s 761 mmHg 82%
    05:00 +7°C° 0 mm 1 m/s 761 mmHg 82%
    06:00 +6°C° 0 mm 1 m/s 760 mmHg 82%
    07:00 +7°C° 0 mm 2 m/s 760 mmHg 76%
    08:00 +8°C° 0 mm 3 m/s 760 mmHg 71%
    09:00 +10°C° 0 mm 3 m/s 760 mmHg 66%
    10:00 +11°C° 0 mm 4 m/s 760 mmHg 61%
    11:00 +12°C° 0 mm 4 m/s 760 mmHg 55%
    12:00 +13°C° 0 mm 5 m/s 759 mmHg 50%
    13:00 +14°C° 0 mm 5 m/s 759 mmHg 52%
    14:00 +14°C° 0 mm 5 m/s 758 mmHg 54%
    15:00 +14°C° 0 mm 5 m/s 758 mmHg 55%
    16:00 +13°C° 0 mm 5 m/s 757 mmHg 61%
    17:00 +13°C° 0 mm 4 m/s 757 mmHg 67%
    18:00 +12°C° 0 mm 4 m/s 757 mmHg 73%
    19:00 +11°C° 0 mm 4 m/s 757 mmHg 75%
    20:00 +11°C° 0 mm 4 m/s 757 mmHg 77%
    21:00 +10°C° 0 mm 5 m/s 757 mmHg 79%
    22:00 +9°C° 0 mm 5 m/s 757 mmHg 80%
    23:00 +9°C° 0 mm 5 m/s 756 mmHg 81%

    26 Septembre, Mercredi

    Heure Température Précipitation Vent Pression Humidité
    00:00 +9°C° 0 mm 5 m/s 756 mmHg 82%
    01:00 +9°C° 0 mm 5 m/s 756 mmHg 82%
    02:00 +9°C° 0 mm 5 m/s 755 mmHg 83%
    03:00 +8°C° 0 mm 5 m/s 755 mmHg 83%
    04:00 +8°C° 0 mm 5 m/s 755 mmHg 83%
    05:00 +8°C° 0 mm 5 m/s 755 mmHg 83%
    06:00 +8°C° 0 mm 5 m/s 754 mmHg 83%
    07:00 +9°C° 0 mm 5 m/s 754 mmHg 79%
    08:00 +12°C° 0 mm 5 m/s 754 mmHg 76%
    09:00 +13°C° 0 mm 5 m/s 755 mmHg 72%
    10:00 +14°C° 0 mm 5 m/s 754 mmHg 69%
    11:00 +16°C° 0 mm 6 m/s 754 mmHg 67%
    12:00 +17°C° 0 mm 6 m/s 754 mmHg 64%
    13:00 +19°C° 0 mm 5 m/s 754 mmHg 65%
    14:00 +19°C° 0 mm 5 m/s 754 mmHg 66%
    15:00 +20°C° 0 mm 5 m/s 754 mmHg 66%
    16:00 +17°C° 0 mm 5 m/s 754 mmHg 72%
    17:00 +17°C° 0 mm 4 m/s 754 mmHg 77%
    18:00 +16°C° 0 mm 3 m/s 754 mmHg 82%
    19:00 +14°C° 0 mm 3 m/s 754 mmHg 85%
    20:00 +13°C° 0 mm 3 m/s 754 mmHg 87%
    21:00 +13°C° 0 mm 3 m/s 755 mmHg 89%
    22:00 +13°C° 0 mm 2 m/s 755 mmHg 90%
    23:00 +13°C° 0 mm 2 m/s 754 mmHg 91%

    27 Septembre, Jeudi

    Heure Température Précipitation Vent Pression Humidité
    00:00 +13°C° 0 mm 2 m/s 754 mmHg 92%
    01:00 +12°C° 0 mm 2 m/s 754 mmHg 92%
    02:00 +12°C° 0 mm 2 m/s 754 mmHg 92%
    03:00 +12°C° 0 mm 2 m/s 754 mmHg 93%
    04:00 +12°C° 0 mm 2 m/s 754 mmHg 93%
    05:00 +12°C° 0 mm 2 m/s 754 mmHg 93%
    06:00 +10°C° 0 mm 2 m/s 754 mmHg 94%
    07:00 +13°C° 0 mm 2 m/s 753 mmHg 89%
    08:00 +14°C° 0 mm 2 m/s 753 mmHg 85%
    09:00 +15°C° 0 mm 2 m/s 753 mmHg 81%
    10:00 +17°C° 0 mm 2 m/s 753 mmHg 76%
    11:00 +18°C° 0 mm 3 m/s 753 mmHg 71%
    12:00 +20°C° 0 mm 3 m/s 753 mmHg 66%
    13:00 +20°C° 0 mm 3 m/s 752 mmHg 66%
    14:00 +20°C° 0 mm 3 m/s 752 mmHg 65%
    15:00 +21°C° 0 mm 3 m/s 751 mmHg 64%
    16:00 +19°C° 0 mm 3 m/s 751 mmHg 70%
    17:00 +18°C° 0 mm 2 m/s 751 mmHg 75%
    18:00 +17°C° 0 mm 2 m/s 751 mmHg 81%
    19:00 +16°C° 0 mm 2 m/s 751 mmHg 83%
    20:00 +15°C° 0 mm 2 m/s 751 mmHg 85%
    21:00 +14°C° 0 mm 1 m/s 752 mmHg 87%
    22:00 +14°C° 0 mm 1 m/s 751 mmHg 88%
    23:00 +13°C° 0 mm 1 m/s 751 mmHg 89%

    28 Septembre, Vendredi

    Heure Température Précipitation Vent Pression Humidité
    00:00 +13°C° 0 mm 1 m/s 751 mmHg 90%
    01:00 +13°C° 0 mm 1 m/s 751 mmHg 90%
    02:00 +12°C° 0 mm 1 m/s 751 mmHg 91%
    03:00 +12°C° 0 mm 2 m/s 751 mmHg 92%
    04:00 +12°C° 0 mm 2 m/s 751 mmHg 93%
    05:00 +12°C° 0 mm 2 m/s 750 mmHg 93%
    06:00 +12°C° 0 mm 2 m/s 750 mmHg 94%
    07:00 +13°C° 0 mm 2 m/s 750 mmHg 92%
    08:00 +14°C° 0 mm 2 m/s 750 mmHg 90%
    09:00 +13°C° 0 mm 3 m/s 751 mmHg 88%
    10:00 +14°C° 0 mm 3 m/s 751 mmHg 87%
    11:00 +14°C° 0 mm 3 m/s 751 mmHg 85%
    12:00 +14°C° 0 mm 3 m/s 751 mmHg 84%
    13:00 +14°C° 0.1 mm 3 m/s 750 mmHg 84%
    14:00 +14°C° 0.1 mm 4 m/s 750 mmHg 84%
    15:00 +14°C° 0.1 mm 4 m/s 750 mmHg 84%
    16:00 +14°C° 0.1 mm 4 m/s 750 mmHg 84%
    17:00 +13°C° 0.1 mm 5 m/s 751 mmHg 84%
    18:00 +13°C° 0.1 mm 5 m/s 751 mmHg 84%
    19:00 +12°C° 0.1 mm 5 m/s 752 mmHg 84%
    20:00 +12°C° 0.1 mm 5 m/s 752 mmHg 85%
    21:00 +10°C° 0.1 mm 5 m/s 753 mmHg 85%
    22:00 +10°C° 0 mm 5 m/s 753 mmHg 84%
    23:00 +10°C° 0 mm 5 m/s 753 mmHg 84%
    Voir plus